[[{"header":{"parameterUnit":"m.s-1","parameterCategory":1,"la1":30.2991,"la2":30.254,"lo1":-89.0895,"lo2":-89.0444,"dy":0.0017,"dx":0.0017,"nx":28,"ny":28,"refTime":"2024-12-10T09:00:00:Z","depth":0,"parameterNumber":2,"parameterNumberName":"U-component_of_WINDS"},"data":[0,0,0,0,0,0,0,0,0,0,0,0,0,0,0,0,0,0,0,0,0,0,0,0,0,0,0,0,0,0,0,0,0,0,0,0,0,0,0,0,0,0,0,0,0,0,0,0,0,0,0,0,0,0,0,0,0,0,2.5713,2.5713,0,2.5735,2.5735,2.5736,2.5721,2.5721,2.572,2.5719,2.5742,2.5743,2.5744,0,0,0,0,0,0,0,0,0,0,0,0,0,2.5659,2.566,2.5713,2.5713,2.5713,2.5735,2.5735,2.5736,2.5721,2.5721,2.572,2.5719,2.5741,2.5743,2.5744,0,0,0,0,0,0,0,0,0,0,0,0,0,2.5682,2.566,2.5713,2.5709,2.5709,2.5735,2.5735,2.5736,2.5721,2.572,2.5719,2.5719,2.5741,2.5743,2.5744,2.5776,0,0,2.575,2.5751,0,0,0,0,0,0,0,0,2.568,2.5684,2.5709,2.5709,2.5709,2.5724,2.5725,2.5749,2.5722,2.5717,2.5719,2.5718,2.5737,2.5739,2.5745,2.5777,2.5778,2.575,2.5751,2.5752,2.5753,0,0,0,0,0,0,0,2.5679,2.5683,2.5722,2.571,2.5709,2.5706,2.5708,2.5729,2.5732,2.5717,2.5716,2.5719,2.5737,2.5744,2.5746,2.5778,2.575,2.5752,2.5753,2.5754,2.5838,2.584,0,0,0,0,0,0,2.5677,2.5681,2.5721,2.5722,2.5692,2.5708,2.571,2.572,2.5732,2.5733,2.572,2.5718,2.5741,2.5744,2.5746,2.5785,2.5752,2.5754,2.5755,2.5837,2.5839,2.584,0,0,0,0,0,0,2.5676,2.5681,2.572,2.5702,2.5706,2.571,2.5721,2.5721,2.5728,2.5734,2.5734,2.5726,2.574,2.5744,2.5769,2.5785,2.5755,2.5756,2.5836,2.5838,2.5839,2.5861,0,0,0,0,0,0,2.5675,2.5681,2.5692,2.5702,2.5707,2.5742,2.5722,2.5723,2.5732,2.573,2.574,2.5741,2.574,2.5766,2.5771,2.5787,2.5758,2.5834,2.5837,2.5839,2.5859,2.5863,2.5867,0,0,0,0,0,2.5673,2.5697,2.5693,2.5698,2.5722,2.5743,2.5746,2.5744,2.5733,2.5745,2.5749,2.574,2.5783,2.5769,2.5774,2.5791,2.5833,2.5836,2.5839,2.5857,2.5863,2.5867,0,0,0,0,0,0,2.5689,2.5698,2.5694,2.5722,2.5732,2.574,2.5755,2.575,2.5763,2.5761,2.5758,2.5761,2.5787,2.5792,2.5776,2.5823,2.5806,2.581,2.5819,2.5824,2.5828,2.5826,2.5759,0,0,0,0,0,2.5696,2.5712,2.5719,2.5743,2.5749,2.5751,2.576,2.5759,2.5769,2.5773,2.5778,2.5788,2.5804,2.5814,2.5829,2.586,2.5862,2.5874,2.5878,2.5882,2.5885,2.5903,2.5908,2.5848,2.5848,2.5848,0,0,2.571,2.5717,2.5727,2.5747,2.5754,2.5772,2.5755,2.5773,2.5786,2.5775,2.58,2.5804,2.5816,2.5844,2.5857,2.5849,2.5902,2.5885,2.5888,2.5889,2.5906,2.5912,2.5917,2.585,2.585,2.585,0,0,2.5744,2.5751,2.5773,2.5781,2.5793,2.5795,2.58,2.581,2.5813,2.5837,2.583,2.5845,2.5872,2.5881,2.5889,2.5929,2.5922,2.5934,2.5955,2.5973,2.5977,2.5981,2.5996,2.6002,2.5937,2.5937,2.5937,0,2.576,2.5786,2.5784,2.5804,2.5813,2.5805,2.5827,2.5835,2.5851,2.5858,2.5849,2.5883,2.589,2.5921,2.5931,2.5938,2.5944,2.5932,2.5977,2.5981,2.5985,2.5999,2.6004,2.5939,2.5938,2.5938,2.5938,0,2.5805,2.5823,2.5839,2.5855,2.5867,2.5887,2.5889,2.5901,2.5899,2.5902,2.5928,2.5936,2.5953,2.596,2.5958,2.5991,2.5986,2.5977,2.596,2.5992,2.6005,2.601,2.594,2.594,2.594,2.5939,0,0,2.5849,2.5865,2.5871,2.5879,2.5893,2.5907,2.5928,2.5945,2.5955,2.5967,2.5985,2.6009,2.6001,2.601,2.6008,2.6024,2.6056,2.6013,2.6013,2.6021,2.6095,2.6101,2.6107,2.6052,2.6053,2.6054,2.6094,0,2.5884,2.5921,2.5921,2.5955,2.5972,2.5965,2.5984,2.5994,2.5998,2.6014,2.6018,2.6035,2.6023,2.6029,2.6044,2.6049,2.6071,2.6046,2.6069,2.607,2.6066,2.6114,2.6121,2.6158,2.6099,2.61,2.61,0,2.593,2.5944,2.598,2.5992,2.6,2.6016,2.6032,2.6047,2.6059,2.6061,2.6073,2.6069,2.6092,2.6075,2.6106,2.6089,2.6098,2.6103,2.6104,2.6106,2.6087,2.6117,2.617,2.6176,2.6108,2.6108,2.6107,0,2.5959,2.5987,2.6012,2.6019,2.6034,2.6046,2.6053,2.6064,2.6075,2.6089,2.6096,2.6113,2.6122,2.6136,2.6138,2.6125,2.6169,2.6152,2.6171,2.6171,2.618,2.618,2.6235,2.6187,2.6187,2.6187,2.6186,0,2.5999,2.6021,2.6026,2.6041,2.6066,2.6067,2.6092,2.6098,2.6108,2.6125,2.6121,2.6137,2.6138,2.6155,2.6157,2.6182,2.6186,2.6189,2.6189,2.6189,2.6189,2.6195,2.6192,2.6188,2.6188,2.6187,2.6187,0,2.6035,2.6039,2.6066,2.6078,2.6082,2.61,2.6111,2.6126,2.613,2.6152,2.6157,2.6163,2.6183,2.6187,2.6209,2.6211,2.6242,2.6239,2.6237,2.6237,2.6256,2.6255,2.6317,2.6326,2.6272,2.6273,2.6273,0,2.6059,2.6076,2.6091,2.6102,2.611,2.6128,2.6139,2.6141,2.6153,2.6169,2.6183,2.6202,2.6218,2.625,2.6256,2.6274,2.6272,2.6293,2.6275,2.6275,2.6273,2.6272,2.6274,2.6296,2.6297,2.6298,2.6298,0,2.6103,2.6105,2.6121,2.6139,2.6153,2.6166,2.618,2.6189,2.6193,2.6207,2.6227,2.6239,2.6263,2.6283,2.6301,2.6308,2.6304,2.6304,2.6309,2.6309,2.6308,2.6309,2.6247,2.6302,2.6302,2.6301,2.6301,2.6301,2.6134,2.615,2.6163,2.6182,2.6192,2.6205,2.622,2.6227,2.6244,2.6264,2.6264,2.6287,2.63,2.6324,2.6333,2.6351,2.6344,2.6352,2.6354,2.6356,2.6358,2.6306,2.6354,2.6354,2.6354,2.6354,2.6354,0,2.6178,2.6187,2.6204,2.6223,2.6238,2.6234,2.6248,2.6261,2.6281,2.6294,2.631,2.6334,2.6354,2.6363,2.6382,2.6395,2.6393,2.64,2.6399,2.6401,2.6362,2.6356,2.6401,2.6401,2.6401,2.6401,2.6401,2.6401,2.6203,2.6229,2.6232,2.6264,2.6272,2.6294,2.6303,2.6316,2.6326,2.6353,2.6369,2.6376,2.6387,2.6408,2.6426,2.6428,2.6435,2.6443,2.6444,2.6408,2.6403,2.6399,2.6392,2.6444,2.6444,2.6481,2.6481,2.6481]},{"header":{"parameterUnit":"m.s-1","parameterCategory":1,"la1":30.2991,"la2":30.254,"lo1":-89.0895,"lo2":-89.0444,"dy":0.0017,"dx":0.0017,"nx":28,"ny":28,"refTime":"2024-12-10T09:00:00:Z","depth":0,"parameterNumber":3,"parameterNumberName":"V-component_of_WINDS"},"data":[0,0,0,0,0,0,0,0,0,0,0,0,0,0,0,0,0,0,0,0,0,0,0,0,0,0,0,0,0,0,0,0,0,0,0,0,0,0,0,0,0,0,0,0,0,0,0,0,0,0,0,0,0,0,0,0,0,0,-4.7614,-4.7615,0,-4.773,-4.7732,-4.7733,-4.7724,-4.7722,-4.772,-4.7719,-4.7836,-4.7841,-4.7846,0,0,0,0,0,0,0,0,0,0,0,0,0,-4.7383,-4.7387,-4.7614,-4.7615,-4.7616,-4.773,-4.7732,-4.7733,-4.7724,-4.7722,-4.772,-4.7718,-4.7835,-4.784,-4.7846,0,0,0,0,0,0,0,0,0,0,0,0,0,-4.7489,-4.7388,-4.7613,-4.7626,-4.7628,-4.773,-4.7732,-4.7734,-4.7724,-4.7722,-4.7719,-4.7717,-4.7833,-4.784,-4.7847,-4.7944,0,0,-4.7869,-4.7872,0,0,0,0,0,0,0,0,-4.7483,-4.7498,-4.7622,-4.7625,-4.7628,-4.771,-4.7693,-4.7804,-4.7725,-4.7688,-4.7718,-4.7715,-4.7796,-4.7806,-4.7834,-4.7949,-4.7954,-4.7869,-4.7874,-4.7877,-4.7879,0,0,0,0,0,0,0,-4.7476,-4.7493,-4.766,-4.7624,-4.7627,-4.7625,-4.7638,-4.7714,-4.7755,-4.7691,-4.769,-4.7704,-4.7797,-4.7827,-4.7837,-4.7956,-4.7869,-4.7876,-4.788,-4.7883,-4.8159,-4.8161,0,0,0,0,0,0,-4.7466,-4.7487,-4.7656,-4.7663,-4.7548,-4.7632,-4.7645,-4.7686,-4.7754,-4.7762,-4.7707,-4.7704,-4.7816,-4.7828,-4.7841,-4.796,-4.7877,-4.7884,-4.7888,-4.8156,-4.8159,-4.8162,0,0,0,0,0,0,-4.7461,-4.7481,-4.7651,-4.7575,-4.7596,-4.7638,-4.7684,-4.769,-4.772,-4.7766,-4.7773,-4.773,-4.7814,-4.7831,-4.7919,-4.7964,-4.7887,-4.7893,-4.8152,-4.8157,-4.8161,-4.8198,0,0,0,0,0,0,-4.7454,-4.7479,-4.7516,-4.7576,-4.7601,-4.7728,-4.7687,-4.7694,-4.7732,-4.7729,-4.779,-4.7797,-4.7814,-4.7908,-4.7926,-4.7972,-4.7899,-4.8148,-4.8154,-4.8159,-4.8193,-4.8203,-4.8212,0,0,0,0,0,-4.7446,-4.7521,-4.7518,-4.7539,-4.7648,-4.773,-4.7744,-4.7762,-4.7736,-4.7774,-4.7804,-4.7795,-4.7956,-4.7917,-4.7937,-4.7986,-4.8145,-4.8152,-4.8159,-4.8189,-4.8201,-4.8212,0,0,0,0,0,0,-4.7465,-4.7529,-4.7527,-4.7624,-4.7672,-4.7728,-4.7777,-4.7775,-4.7831,-4.7825,-4.7845,-4.7858,-4.7948,-4.7976,-4.7931,-4.8085,-4.8047,-4.8058,-4.8063,-4.8075,-4.8085,-4.8076,-4.7905,0,0,0,0,0,-4.7481,-4.7543,-4.7595,-4.7676,-4.77,-4.7734,-4.7771,-4.7781,-4.7831,-4.7851,-4.7887,-4.7936,-4.7998,-4.8038,-4.8097,-4.8197,-4.8211,-4.8241,-4.825,-4.8258,-4.8267,-4.8324,-4.8338,-4.8185,-4.8185,-4.8185,0,0,-4.7514,-4.7556,-4.7594,-4.7681,-4.7719,-4.7783,-4.7751,-4.7819,-4.7867,-4.7861,-4.7947,-4.7976,-4.8032,-4.8127,-4.817,-4.8153,-4.8313,-4.8267,-4.8272,-4.8278,-4.8333,-4.8347,-4.836,-4.819,-4.8189,-4.8188,0,0,-4.7606,-4.7644,-4.7716,-4.7756,-4.7815,-4.7837,-4.7855,-4.7912,-4.7932,-4.8018,-4.8016,-4.8072,-4.8178,-4.8218,-4.8253,-4.8362,-4.8357,-4.8381,-4.8431,-4.8486,-4.8498,-4.8509,-4.8549,-4.8563,-4.839,-4.839,-4.839,0,-4.7639,-4.7735,-4.7753,-4.7823,-4.7862,-4.786,-4.7934,-4.7971,-4.8046,-4.8073,-4.8052,-4.8186,-4.8223,-4.8328,-4.8355,-4.8383,-4.8404,-4.8374,-4.8495,-4.8506,-4.8516,-4.8555,-4.857,-4.8393,-4.8393,-4.8392,-4.8392,0,-4.7773,-4.784,-4.7891,-4.7965,-4.801,-4.8081,-4.811,-4.8153,-4.8159,-4.8184,-4.8273,-4.8318,-4.8387,-4.8413,-4.8419,-4.852,-4.8507,-4.8491,-4.8454,-4.8533,-4.857,-4.8585,-4.8397,-4.8396,-4.8395,-4.8394,0,0,-4.788,-4.7965,-4.7983,-4.8018,-4.8083,-4.8135,-4.8207,-4.8275,-4.8312,-4.8364,-4.8425,-4.8515,-4.8501,-4.854,-4.8551,-4.8599,-4.8685,-4.8577,-4.8579,-4.8597,-4.88,-4.8813,-4.883,-4.8682,-4.8685,-4.8687,-4.8796,0,-4.798,-4.8108,-4.8127,-4.8239,-4.8302,-4.8302,-4.8365,-4.8412,-4.8437,-4.8494,-4.8522,-4.8586,-4.8562,-4.8586,-4.8633,-4.8665,-4.8727,-4.8657,-4.8739,-4.8742,-4.8726,-4.8849,-4.8862,-4.8963,-4.8811,-4.8813,-4.8815,0,-4.8113,-4.8171,-4.829,-4.8349,-4.8376,-4.8431,-4.8497,-4.8551,-4.8605,-4.862,-4.8665,-4.867,-4.8745,-4.8705,-4.8808,-4.8761,-4.8796,-4.8816,-4.8821,-4.8829,-4.8784,-4.8862,-4.8995,-4.9011,-4.8837,-4.8835,-4.8834,0,-4.8181,-4.8288,-4.8373,-4.8402,-4.8473,-4.8512,-4.8544,-4.8595,-4.8636,-4.8693,-4.8719,-4.8784,-4.8819,-4.8869,-4.8892,-4.886,-4.8995,-4.8956,-4.901,-4.901,-4.9039,-4.9037,-4.9181,-4.906,-4.906,-4.9059,-4.9059,0,-4.8291,-4.8364,-4.8405,-4.8457,-4.854,-4.8561,-4.8642,-4.8672,-4.8718,-4.8777,-4.878,-4.8835,-4.8862,-4.8921,-4.8939,-4.9023,-4.9039,-4.9054,-4.9058,-4.9054,-4.9052,-4.9078,-4.9072,-4.9063,-4.9062,-4.9062,-4.9061,0,-4.838,-4.8411,-4.8504,-4.8564,-4.8581,-4.8639,-4.869,-4.8741,-4.8767,-4.8841,-4.886,-4.89,-4.897,-4.8998,-4.9083,-4.9096,-4.9193,-4.9191,-4.9175,-4.9176,-4.9229,-4.9225,-4.9395,-4.9419,-4.9282,-4.9283,-4.9284,0,-4.8449,-4.8505,-4.8572,-4.8612,-4.8645,-4.8709,-4.8751,-4.8775,-4.8818,-4.8885,-4.8929,-4.8999,-4.9056,-4.9168,-4.9205,-4.9271,-4.9271,-4.9326,-4.9281,-4.9276,-4.9273,-4.927,-4.9277,-4.9335,-4.9336,-4.9337,-4.9338,0,-4.8568,-4.8581,-4.8641,-4.8708,-4.8758,-4.8811,-4.8863,-4.8896,-4.8928,-4.8976,-4.9049,-4.9093,-4.9182,-4.9251,-4.932,-4.9351,-4.9351,-4.9352,-4.9369,-4.9366,-4.9355,-4.9363,-4.9199,-4.9348,-4.9347,-4.9347,-4.9346,-4.9346,-4.865,-4.8701,-4.8756,-4.8824,-4.8866,-4.8915,-4.8967,-4.9,-4.9061,-4.9135,-4.9145,-4.9223,-4.9277,-4.9368,-4.9403,-4.9465,-4.945,-4.9473,-4.9479,-4.9485,-4.9489,-4.9344,-4.9477,-4.9476,-4.9476,-4.9476,-4.9476,0,-4.877,-4.8806,-4.8868,-4.8942,-4.8996,-4.8991,-4.9049,-4.9094,-4.9163,-4.9213,-4.927,-4.9354,-4.9423,-4.9465,-4.9534,-4.9575,-4.9577,-4.9593,-4.959,-4.9598,-4.9498,-4.9477,-4.959,-4.959,-4.959,-4.959,-4.959,-4.959,-4.8839,-4.8926,-4.8945,-4.9053,-4.9088,-4.9165,-4.9199,-4.9244,-4.9285,-4.9379,-4.9436,-4.9464,-4.9512,-4.9585,-4.9648,-4.9658,-4.9684,-4.9701,-4.9711,-4.9617,-4.9605,-4.9594,-4.9575,-4.9706,-4.9707,-4.9807,-4.9808,-4.9808]}]]